Hourly Data Report for January 17, 2019

TORONTO CITY
ONTARIO
Current Station Operator: ECCC - MSC

43°40'00.000" N
79°24'00.000" W
112.50 m
6158355
71508
XTO

Download Data

Hourly Data (January 2019)
Hourly Data Report for January 17, 2019
TIME
LST
Temp Definition
°C
Dew Point Definition
°C
Rel Hum Definition
%
Precip. Amount Definition
mm

Wind Dir Definition
10's deg

Wind Spd Definition
km/h
Visibility Definition
km
Stn Press Definition
kPa
Hmdx Definition


Wind Chill Definition


Weather Definition


00:00 -9.3 -16.3 57 0.0 LegendMM LegendMM   101.40     LegendNANA
01:00 -9.6 -16.3 58 0.0 LegendMM LegendMM   101.38     LegendNANA
02:00 -9.1 -16.2 56 0.0 LegendMM LegendMM   101.40     LegendNANA
03:00 -10.0 -15.4 65 0.0 LegendMM LegendMM   101.43     LegendNANA
04:00 -10.7 -17.3 58 0.0 LegendMM LegendMM   101.43     LegendNANA
05:00 -11.4 -18.4 56 0.0 LegendMM LegendMM   101.42     LegendNANA
06:00 -11.3 -18.1 57 0.0 LegendMM LegendMM   101.44     LegendNANA
07:00 -10.8 -16.6 62 0.0 LegendMM LegendMM   101.40     LegendNANA
08:00 -10.5 -16.1 63 0.0 LegendMM LegendMM   101.38     LegendNANA
09:00 -9.3 -14.1 68 0.0 LegendMM LegendMM   101.37     LegendNANA
10:00 -7.6 -11.2 75 0.0 LegendMM LegendMM   101.32     LegendNANA
11:00 -5.5 -9.5 74 0.0 LegendMM LegendMM   101.28     LegendNANA
12:00 -5.2 -10.6 66 0.0 LegendMM LegendMM   101.16     LegendNANA
13:00 -5.0 -10.4 66 0.0 LegendMM LegendMM   101.00     LegendNANA
14:00 -5.0 -10.7 65 0.0 LegendMM LegendMM   100.89     LegendNANA
15:00 -4.6 -10.5 63 0.0 LegendMM LegendMM   100.86     LegendNANA
16:00 -4.6 -10.7 63 0.0 LegendMM LegendMM   100.78     LegendNANA
17:00 -4.3 -11.2 58 0.0 LegendMM LegendMM   100.65     LegendNANA
18:00 -4.1 -10.9 59 0.0 LegendMM LegendMM   100.61     LegendNANA
19:00 -3.8 -10.7 59 0.0 LegendMM LegendMM   100.54     LegendNANA
20:00 -3.3 -9.8 61 0.0 LegendMM LegendMM   100.47     LegendNANA
21:00 -2.8 -8.6 64 0.0 LegendMM LegendMM   100.40     LegendNANA
22:00 -2.3 -7.8 66 0.0 LegendMM LegendMM   100.31     LegendNANA
23:00 -2.2 -6.5 72 0.0 LegendMM LegendMM   100.26     LegendNANA

Notes on Data Quality.

Legend

  • E = Estimated
  • M = Missing
  • NA = Not Available*
  • [empty] = Indicates an unobserved value
Date modified: